Fort Bragg, NC

2:18 AM EDT on September 26, 2017 (GMT -0400)
Simmons Army Air Field

Weather History for KFBG - June, 2014

Change the Weather History Date:

Saturday, June 7, 2014

  Actual Average Record
Temperature  
Mean Temperature 76 °F -  
Max Temperature 87 °F 83 °F 99 °F (2008)
Min Temperature 65 °F 65 °F 55 °F (1997)
Cooling Degree Days 10    
Growing Degree Days 26 (Base 50)    
Moisture  
Dew Point 61 °F    
Average Humidity 62    
Maximum Humidity 96    
Minimum Humidity 37    
Precipitation  
Precipitation 0.00 in - - ()
Sea Level Pressure  
Sea Level Pressure 29.98 in    
Wind  
Wind Speed 3 mph (East)    
Max Wind Speed 8 mph    
Max Gust Speed -    
Visibility 10 miles    
Events Rain    
Averages and records for this station are not official NWS values.
T = Trace of Precipitation, MM = Missing Value Source: NWS Daily Summary

Daily Weather History Graph

Daily Weather History Graph

Search for Another Location

Airport or City:

Trip Planner

Search our weather history database for the weather conditions in past years. The results will help you decide how hot, cold, wet, or windy it might be!

Date:

Astronomy

Jun. 07, 2014 Rise Set
Actual Time 6:01 AM EDT 8:28 PM EDT
Civil Twilight 5:31 AM EDT 8:57 PM EDT
Nautical Twilight 4:55 AM EDT 9:34 PM EDT
Astronomical Twilight 4:15 AM EDT 10:14 PM EDT
Moon 2:55 PM EDT (6/7) 2:09 AM EDT (6/7)
Length of Visible Light 15h 26m
Length of Day
14h 26m
Waxing Gibbous, 67% of the Moon is Illuminated
Jun 7
Waxing Gibbous
Jun 13
Full
Jun 19
Last Quarter
Jun 27
New
Jul 5
First Quarter

Hourly Weather History & Observations

Time (EDT) Temp. Heat Index Dew Point Humidity Pressure Visibility Wind Dir Wind Speed Gust Speed Precip Events Conditions
12:58 AM 69.4 °F - 67.3 °F 93% 29.96 in 10.0 mi NE 1.2 mph - N/A   Clear
1:58 AM 68.4 °F - 66.6 °F 94% 29.94 in 10.0 mi ENE 1.2 mph - N/A   Clear
2:58 AM 67.8 °F - 66.0 °F 94% 29.96 in 10.0 mi Calm Calm - N/A   Clear
3:58 AM 66.0 °F - 64.8 °F 96% 29.95 in 10.0 mi NE 2.3 mph - N/A   Clear
4:58 AM 66.0 °F - 64.6 °F 95% 29.94 in 10.0 mi NE 2.3 mph - N/A   Clear
5:58 AM 65.5 °F - 64.2 °F 96% 29.96 in 10.0 mi ENE 2.3 mph - N/A   Clear
6:58 AM 66.0 °F - 64.2 °F 94% 29.99 in 10.0 mi Calm Calm - N/A   Clear
7:58 AM 70.5 °F - 65.7 °F 85% 30.02 in 10.0 mi ESE 2.3 mph - N/A   Clear
8:58 AM 75.2 °F - 63.7 °F 67% 30.02 in 10.0 mi East 5.8 mph - N/A   Clear
9:58 AM 76.8 °F - 63.0 °F 62% 30.02 in 10.0 mi East 6.9 mph - N/A   Clear
10:58 AM 79.7 °F - 61.3 °F 53% 30.01 in 10.0 mi Variable 5.8 mph - N/A   Partly Cloudy
11:58 AM 80.2 °F 80.8 °F 58.8 °F 48% 30.02 in 10.0 mi ESE 6.9 mph - N/A   Scattered Clouds
1:58 PM 84.2 °F 83.3 °F 57.0 °F 39% 30.01 in 10.0 mi East 8.1 mph - N/A   Clear
2:58 PM 86.0 °F 85.0 °F 57.4 °F 38% 29.98 in 10.0 mi ESE 3.5 mph - N/A   Partly Cloudy
3:58 PM 85.5 °F 84.3 °F 56.3 °F 37% 29.96 in 10.0 mi ENE 5.8 mph - N/A   Partly Cloudy
4:58 PM 84.0 °F 83.3 °F 57.0 °F 40% 29.96 in 10.0 mi Calm Calm - N/A   Clear
5:58 PM 85.3 °F 84.8 °F 58.8 °F 41% 29.96 in 10.0 mi East 5.8 mph - N/A   Partly Cloudy
5:59 PM 84.2 °F 83.8 °F 59.0 °F 42% 29.95 in 10.0 mi East 8.1 mph - N/A Rain Light Rain
6:07 PM 84.2 °F 83.8 °F 59.0 °F 42% 29.95 in 10.0 mi East 8.1 mph - N/A Rain Light Rain
6:08 PM 84.2 °F 83.8 °F 59.0 °F 42% 29.95 in 10.0 mi East 8.1 mph - N/A   Partly Cloudy
6:58 PM 83.7 °F 83.3 °F 58.5 °F 42% 29.96 in 10.0 mi East 5.8 mph - 0.00 in   Partly Cloudy
7:53 PM 82.4 °F 82.5 °F 59.0 °F 45% 29.96 in 10.0 mi ENE 5.8 mph - N/A   Clear
7:58 PM 81.5 °F 81.7 °F 59.0 °F 46% 29.96 in 10.0 mi East 5.8 mph - 0.00 in   Clear
8:58 PM 77.7 °F - 59.5 °F 53% 29.96 in 10.0 mi East 2.3 mph - N/A   Clear
9:58 PM 75.9 °F - 59.9 °F 57% 29.99 in 10.0 mi SE 2.3 mph - N/A   Clear
10:58 PM 74.5 °F - 59.9 °F 60% 29.99 in 10.0 mi SE 6.9 mph - N/A   Scattered Clouds
11:58 PM 74.1 °F - 63.1 °F 68% 30.01 in 10.0 mi South 5.8 mph - N/A   Clear